Time,TemperatureF,DewpointF,PressureIn,WindDirection,WindDirectionDegrees,WindSpeedMPH,WindSpeedGustMPH,Humidity,HourlyPrecipIn,Conditions,Clouds,dailyrainin,SoftwareType,DateUTC
2013-08-31 00:00:00,70.2,69.6,31.01,ENE,70,0.0,0.0,98,0.00,,---,0.00,VWS V14.01,2013-08-31 04:00:00,
2013-08-31 00:01:00,70.2,69.6,31.01,ENE,70,0.0,0.0,98,0.00,,---,0.00,VWS V14.01,2013-08-31 04:01:00,
2013-08-31 00:02:00,70.2,69.6,31.01,ENE,70,0.0,0.0,98,0.00,,---,0.00,VWS V14.01,2013-08-31 04:02:00,
2013-08-31 00:07:00,70.2,69.6,31.01,ENE,70,0.0,0.0,98,0.00,,---,0.00,VWS V14.01,2013-08-31 04:07:00,
2013-08-31 00:12:00,70.3,69.8,31.01,ENE,70,0.0,0.0,98,0.00,,---,0.00,VWS V14.01,2013-08-31 04:12:00,
2013-08-31 00:17:00,70.3,69.8,31.01,ENE,70,0.0,0.0,98,0.00,,---,0.00,VWS V14.01,2013-08-31 04:17:00,
2013-08-31 00:22:00,70.3,69.8,31.01,ENE,70,0.0,0.0,98,0.00,,---,0.00,VWS V14.01,2013-08-31 04:22:00,
2013-08-31 00:27:00,70.3,69.8,31.01,ENE,70,0.0,0.0,98,0.00,,---,0.00,VWS V14.01,2013-08-31 04:27:00,
2013-08-31 00:32:00,70.3,69.8,31.01,ENE,70,0.0,0.0,98,0.00,,---,0.00,VWS V14.01,2013-08-31 04:32:00,
2013-08-31 00:37:00,70.3,69.8,31.01,ENE,70,0.0,0.0,98,0.00,,---,0.00,VWS V14.01,2013-08-31 04:37:00,
2013-08-31 00:42:00,70.3,69.8,31.01,ENE,70,0.0,0.0,98,0.00,,---,0.00,VWS V14.01,2013-08-31 04:42:00,
2013-08-31 00:47:00,70.3,69.8,31.01,ENE,70,0.0,0.0,98,0.00,,---,0.00,VWS V14.01,2013-08-31 04:47:00,
2013-08-31 00:52:00,70.3,69.8,31.01,ENE,70,0.0,0.0,98,0.00,,---,0.00,VWS V14.01,2013-08-31 04:52:00,
2013-08-31 00:56:00,70.2,69.6,31.01,ENE,71,0.0,0.0,98,0.00,,---,0.00,VWS V14.01,2013-08-31 04:56:00,
2013-08-31 01:02:00,70.2,69.6,31.01,ENE,70,0.0,0.0,98,0.00,,---,0.00,VWS V14.01,2013-08-31 05:02:00,
2013-08-31 01:06:00,70.2,69.6,31.01,ENE,71,0.0,0.0,98,0.00,,---,0.00,VWS V14.01,2013-08-31 05:06:00,
2013-08-31 01:11:00,70.2,69.6,31.01,ENE,70,0.0,0.0,98,0.00,,---,0.00,VWS V14.01,2013-08-31 05:11:00,
2013-08-31 01:16:00,70.2,69.6,31.01,ENE,70,0.0,0.0,98,0.00,,---,0.00,VWS V14.01,2013-08-31 05:16:00,
2013-08-31 01:21:00,70.2,69.6,31.01,ENE,71,0.0,0.0,98,0.00,,---,0.00,VWS V14.01,2013-08-31 05:21:00,
2013-08-31 01:26:00,70.2,69.6,31.01,ENE,70,0.0,0.0,98,0.00,,---,0.00,VWS V14.01,2013-08-31 05:26:00,
2013-08-31 01:32:00,70.2,69.6,31.01,ENE,70,0.0,0.0,98,0.00,,---,0.00,VWS V14.01,2013-08-31 05:32:00,
2013-08-31 01:36:00,70.2,69.6,31.01,East,87,0.0,0.0,98,0.00,,---,0.00,VWS V14.01,2013-08-31 05:36:00,
2013-08-31 01:41:00,70.2,69.6,31.01,East,87,0.0,0.0,98,0.00,,---,0.00,VWS V14.01,2013-08-31 05:41:00,
2013-08-31 01:46:00,70.2,69.6,31.01,East,87,0.0,0.0,98,0.00,,---,0.00,VWS V14.01,2013-08-31 05:46:00,
2013-08-31 01:51:00,70.2,69.6,31.01,East,87,0.0,0.0,98,0.00,,---,0.00,VWS V14.01,2013-08-31 05:51:00,
2013-08-31 01:56:00,70.0,69.4,31.01,East,87,0.0,0.0,98,0.00,,---,0.00,VWS V14.01,2013-08-31 05:56:00,
2013-08-31 02:01:00,69.8,69.2,31.01,East,87,0.0,0.0,98,0.00,,---,0.00,VWS V14.01,2013-08-31 06:01:00,
2013-08-31 02:06:00,69.4,68.8,31.01,East,87,0.0,0.0,98,0.00,,---,0.00,VWS V14.01,2013-08-31 06:06:00,
2013-08-31 02:11:00,69.3,68.7,31.01,East,87,0.0,0.0,98,0.00,,---,0.00,VWS V14.01,2013-08-31 06:11:00,
2013-08-31 02:16:00,69.1,68.5,31.01,East,87,0.0,0.0,98,0.00,,---,0.00,VWS V14.01,2013-08-31 06:16:00,
2013-08-31 02:21:00,68.9,68.3,31.01,East,87,0.0,0.0,98,0.00,,---,0.00,VWS V14.01,2013-08-31 06:21:00,
2013-08-31 02:26:00,68.9,68.3,31.01,East,87,0.0,0.0,98,0.00,,---,0.00,VWS V14.01,2013-08-31 06:26:00,
2013-08-31 02:31:00,68.5,68.0,31.01,East,87,0.0,0.0,98,0.00,,---,0.00,VWS V14.01,2013-08-31 06:31:00,
2013-08-31 02:36:00,68.5,68.0,31.01,East,87,0.0,0.0,98,0.00,,---,0.00,VWS V14.01,2013-08-31 06:36:00,
2013-08-31 02:41:00,68.5,68.0,31.01,East,87,0.0,0.0,98,0.00,,---,0.00,VWS V14.01,2013-08-31 06:41:00,
2013-08-31 02:46:00,68.4,67.8,31.01,East,87,0.0,0.0,98,0.00,,---,0.00,VWS V14.01,2013-08-31 06:46:00,
2013-08-31 02:51:00,68.2,67.6,31.01,East,87,0.0,0.0,98,0.00,,---,0.00,VWS V14.01,2013-08-31 06:51:00,
2013-08-31 02:56:00,68.2,67.6,31.01,East,87,0.0,0.0,98,0.00,,---,0.00,VWS V14.01,2013-08-31 06:56:00,
2013-08-31 03:01:00,68.2,67.6,31.01,East,87,0.0,0.0,98,0.00,,---,0.00,VWS V14.01,2013-08-31 07:01:00,
2013-08-31 03:06:00,68.0,67.4,31.01,East,87,0.0,0.0,98,0.00,,---,0.00,VWS V14.01,2013-08-31 07:06:00,
2013-08-31 03:11:00,68.0,67.4,31.01,East,87,0.0,0.0,98,0.00,,---,0.00,VWS V14.01,2013-08-31 07:11:00,
2013-08-31 03:16:00,67.8,67.2,31.01,East,87,0.0,0.0,98,0.00,,---,0.00,VWS V14.01,2013-08-31 07:16:00,
2013-08-31 03:21:00,67.8,67.2,31.01,East,87,0.0,0.0,98,0.00,,---,0.00,VWS V14.01,2013-08-31 07:21:00,
2013-08-31 03:26:00,67.8,67.2,31.01,East,87,0.0,0.0,98,0.00,,---,0.00,VWS V14.01,2013-08-31 07:26:00,
2013-08-31 03:31:00,67.6,67.1,31.01,East,87,0.0,0.0,98,0.00,,---,0.00,VWS V14.01,2013-08-31 07:31:00,
2013-08-31 03:36:00,67.6,67.1,31.01,East,87,0.0,0.0,98,0.00,,---,0.00,VWS V14.01,2013-08-31 07:36:00,
2013-08-31 03:41:00,67.6,67.1,31.01,East,87,0.0,0.0,98,0.00,,---,0.00,VWS V14.01,2013-08-31 07:41:00,
2013-08-31 03:46:00,67.5,66.9,31.01,East,87,0.0,0.0,98,0.00,,---,0.00,VWS V14.01,2013-08-31 07:46:00,
2013-08-31 03:51:00,67.5,66.9,31.01,East,87,0.0,0.0,98,0.00,,---,0.00,VWS V14.01,2013-08-31 07:51:00,
2013-08-31 03:56:00,67.3,66.7,31.01,East,87,0.0,0.0,98,0.00,,---,0.00,VWS V14.01,2013-08-31 07:56:00,
2013-08-31 04:01:00,67.1,66.5,31.01,East,87,0.0,0.0,98,0.00,,---,0.00,VWS V14.01,2013-08-31 08:01:00,
2013-08-31 04:06:00,67.1,66.5,31.01,East,87,0.0,0.0,98,0.00,,---,0.00,VWS V14.01,2013-08-31 08:06:00,
2013-08-31 04:11:00,66.9,66.3,31.01,East,87,0.0,0.0,98,0.00,,---,0.00,VWS V14.01,2013-08-31 08:11:00,
2013-08-31 04:16:00,66.7,66.2,31.01,East,87,0.0,0.0,98,0.00,,---,0.00,VWS V14.01,2013-08-31 08:16:00,
2013-08-31 04:21:00,66.7,66.2,31.01,East,87,0.0,0.0,98,0.00,,---,0.00,VWS V14.01,2013-08-31 08:21:00,
2013-08-31 04:26:00,66.6,66.0,31.01,East,87,0.0,0.0,98,0.00,,---,0.00,VWS V14.01,2013-08-31 08:26:00,
2013-08-31 04:31:00,66.4,65.8,31.01,East,87,0.0,0.0,98,0.00,,---,0.00,VWS V14.01,2013-08-31 08:31:00,
2013-08-31 04:36:00,66.2,65.6,31.01,East,87,0.0,0.0,98,0.00,,---,0.00,VWS V14.01,2013-08-31 08:36:00,
2013-08-31 04:41:00,66.2,65.6,31.01,East,87,0.0,0.0,98,0.00,,---,0.00,VWS V14.01,2013-08-31 08:41:00,
2013-08-31 04:46:00,66.2,65.6,31.01,East,87,0.0,0.0,98,0.00,,---,0.00,VWS V14.01,2013-08-31 08:46:00,
2013-08-31 04:51:00,66.0,65.4,31.01,East,87,0.0,0.0,98,0.00,,---,0.00,VWS V14.01,2013-08-31 08:51:00,
2013-08-31 04:56:00,66.0,65.4,31.01,East,87,0.0,0.0,98,0.00,,---,0.00,VWS V14.01,2013-08-31 08:56:00,
2013-08-31 05:01:00,66.0,65.4,31.01,East,87,0.0,0.0,98,0.00,,---,0.00,VWS V14.01,2013-08-31 09:01:00,
2013-08-31 05:06:00,66.4,65.8,31.01,East,87,0.0,0.0,98,0.00,,---,0.00,VWS V14.01,2013-08-31 09:06:00,
2013-08-31 05:11:00,66.7,66.2,31.01,East,87,0.0,0.0,98,0.00,,---,0.00,VWS V14.01,2013-08-31 09:11:00,
2013-08-31 05:16:00,66.7,66.2,31.01,East,87,0.0,0.0,98,0.00,,---,0.00,VWS V14.01,2013-08-31 09:16:00,
2013-08-31 05:21:00,66.9,66.3,31.01,East,87,0.0,0.0,98,0.00,,---,0.00,VWS V14.01,2013-08-31 09:21:00,
2013-08-31 05:26:00,66.9,66.3,31.01,East,87,0.0,0.0,98,0.00,,---,0.00,VWS V14.01,2013-08-31 09:26:00,
2013-08-31 05:31:00,66.9,66.3,31.01,East,87,0.0,0.0,98,0.00,,---,0.00,VWS V14.01,2013-08-31 09:31:00,
2013-08-31 05:36:00,67.1,66.5,31.01,East,87,0.0,0.0,98,0.00,,---,0.00,VWS V14.01,2013-08-31 09:36:00,
2013-08-31 05:41:00,67.3,66.7,31.01,East,87,0.0,0.0,98,0.00,,---,0.00,VWS V14.01,2013-08-31 09:41:00,
2013-08-31 05:46:00,67.3,66.7,31.01,East,87,0.0,0.0,98,0.00,,---,0.00,VWS V14.01,2013-08-31 09:46:00,
2013-08-31 05:51:00,67.5,66.9,31.01,East,87,0.0,0.0,98,0.00,,---,0.00,VWS V14.01,2013-08-31 09:51:00,
2013-08-31 05:56:00,67.5,66.9,31.01,East,87,0.0,0.0,98,0.00,,---,0.00,VWS V14.01,2013-08-31 09:56:00,
2013-08-31 06:01:00,67.6,67.1,31.01,East,87,0.0,0.0,98,0.00,,---,0.00,VWS V14.01,2013-08-31 10:01:00,
2013-08-31 06:06:00,67.6,67.1,31.01,East,87,0.0,0.0,98,0.00,,---,0.00,VWS V14.01,2013-08-31 10:06:00,
2013-08-31 06:11:00,67.6,67.1,31.01,East,87,0.0,0.0,98,0.00,,---,0.00,VWS V14.01,2013-08-31 10:11:00,
2013-08-31 06:16:00,67.6,67.1,31.01,East,87,0.0,0.0,98,0.00,,---,0.00,VWS V14.01,2013-08-31 10:16:00,
2013-08-31 06:21:00,67.6,67.1,31.01,East,87,0.0,0.0,98,0.00,,---,0.00,VWS V14.01,2013-08-31 10:21:00,
2013-08-31 06:26:00,67.8,67.2,31.01,East,87,0.0,0.0,98,0.00,,---,0.00,VWS V14.01,2013-08-31 10:26:00,
2013-08-31 06:31:00,67.8,67.2,31.01,East,87,0.0,0.0,98,0.00,,---,0.00,VWS V14.01,2013-08-31 10:31:00,
2013-08-31 06:36:00,67.6,67.1,31.01,East,87,0.0,0.0,98,0.00,,---,0.00,VWS V14.01,2013-08-31 10:36:00,
2013-08-31 06:41:00,67.6,67.1,31.01,East,87,0.0,0.0,98,0.00,,---,0.00,VWS V14.01,2013-08-31 10:41:00,
2013-08-31 06:46:00,67.6,67.1,31.01,East,87,0.0,0.0,98,0.00,,---,0.00,VWS V14.01,2013-08-31 10:46:00,
2013-08-31 06:51:00,67.6,67.1,31.01,ESE,119,0.0,0.0,98,0.00,,---,0.00,VWS V14.01,2013-08-31 10:51:00,
2013-08-31 06:56:00,67.6,67.1,31.01,ESE,119,0.0,0.0,98,0.00,,---,0.00,VWS V14.01,2013-08-31 10:56:00,
2013-08-31 07:01:00,67.6,67.1,31.01,ESE,119,0.0,0.0,98,0.00,,---,0.00,VWS V14.01,2013-08-31 11:01:00,
2013-08-31 07:06:00,67.5,66.9,31.01,ESE,119,0.0,0.0,98,0.00,,---,0.00,VWS V14.01,2013-08-31 11:06:00,
2013-08-31 07:11:00,67.6,67.1,31.01,ESE,119,0.0,0.0,98,0.00,,---,0.00,VWS V14.01,2013-08-31 11:11:00,
2013-08-31 07:16:00,67.6,67.1,31.01,ESE,119,0.0,0.0,98,0.00,,---,0.00,VWS V14.01,2013-08-31 11:16:00,
2013-08-31 07:21:00,67.6,67.1,31.01,ESE,119,0.0,0.0,98,0.00,,---,0.00,VWS V14.01,2013-08-31 11:21:00,
2013-08-31 07:26:00,67.6,67.1,31.01,ESE,119,0.0,0.0,98,0.00,,---,0.00,VWS V14.01,2013-08-31 11:26:00,
2013-08-31 07:31:00,67.6,67.1,31.01,ESE,119,0.0,0.0,98,0.00,,---,0.00,VWS V14.01,2013-08-31 11:31:00,
2013-08-31 07:36:00,67.8,67.2,31.01,ESE,119,0.0,0.0,98,0.00,,---,0.00,VWS V14.01,2013-08-31 11:36:00,
2013-08-31 07:41:00,67.6,67.1,31.01,ESE,119,0.0,0.0,98,0.00,,---,0.00,VWS V14.01,2013-08-31 11:41:00,
2013-08-31 07:46:00,67.6,67.1,31.01,ESE,119,0.0,0.0,98,0.00,,---,0.00,VWS V14.01,2013-08-31 11:46:00,
2013-08-31 07:51:00,67.8,67.2,31.01,ESE,119,0.0,0.0,98,0.00,,---,0.00,VWS V14.01,2013-08-31 11:51:00,
2013-08-31 07:56:00,68.0,67.4,31.01,ESE,119,0.0,0.0,98,0.00,,---,0.00,VWS V14.01,2013-08-31 11:56:00,
2013-08-31 08:01:00,68.2,67.6,31.01,ESE,119,0.0,0.0,98,0.00,,---,0.00,VWS V14.01,2013-08-31 12:01:00,
2013-08-31 08:06:00,68.4,67.8,31.01,ESE,119,0.0,0.0,98,0.00,,---,0.00,VWS V14.01,2013-08-31 12:06:00,
2013-08-31 08:11:00,68.5,68.0,31.01,ESE,119,0.0,0.0,98,0.00,,---,0.00,VWS V14.01,2013-08-31 12:11:00,
2013-08-31 08:16:00,68.7,68.1,31.01,ESE,119,0.0,0.0,98,0.00,,---,0.00,VWS V14.01,2013-08-31 12:16:00,
2013-08-31 08:21:00,68.9,68.3,31.01,ESE,119,0.0,0.0,98,0.00,,---,0.00,VWS V14.01,2013-08-31 12:21:00,
2013-08-31 08:26:00,69.3,68.7,31.01,ESE,119,0.0,0.0,98,0.00,,---,0.00,VWS V14.01,2013-08-31 12:26:00,
2013-08-31 08:31:00,69.4,68.8,31.01,ESE,119,0.0,0.0,98,0.00,,---,0.00,VWS V14.01,2013-08-31 12:31:00,
2013-08-31 08:36:00,69.6,69.0,31.01,ESE,119,0.0,0.0,98,0.00,,---,0.00,VWS V14.01,2013-08-31 12:36:00,
2013-08-31 08:41:00,70.0,69.4,31.01,ESE,119,0.0,0.0,98,0.00,,---,0.00,VWS V14.01,2013-08-31 12:41:00,
2013-08-31 08:46:00,70.2,69.6,31.01,ESE,119,0.0,0.0,98,0.00,,---,0.00,VWS V14.01,2013-08-31 12:46:00,
2013-08-31 08:51:00,70.5,69.9,31.01,ESE,119,0.0,0.0,98,0.00,,---,0.00,VWS V14.01,2013-08-31 12:51:00,
2013-08-31 08:56:00,71.2,70.7,31.01,West,273,0.0,2.2,98,0.00,,---,0.00,VWS V14.01,2013-08-31 12:56:00,
2013-08-31 09:01:00,72.0,71.4,31.01,West,273,0.0,0.0,98,0.00,,---,0.00,VWS V14.01,2013-08-31 13:01:00,
2013-08-31 09:06:00,73.4,72.8,31.01,West,273,0.0,0.0,98,0.00,,---,0.00,VWS V14.01,2013-08-31 13:06:00,
2013-08-31 09:11:00,74.1,73.5,31.01,West,273,0.0,0.0,98,0.00,,---,0.00,VWS V14.01,2013-08-31 13:11:00,
2013-08-31 09:16:00,75.2,74.6,31.01,West,272,0.0,0.0,98,0.00,,---,0.00,VWS V14.01,2013-08-31 13:16:00,
2013-08-31 09:21:00,76.6,76.0,31.01,East,96,0.0,0.0,98,0.00,,---,0.00,VWS V14.01,2013-08-31 13:21:00,
2013-08-31 09:26:00,77.7,77.1,31.01,East,96,0.0,0.0,98,0.00,,---,0.00,VWS V14.01,2013-08-31 13:26:00,
2013-08-31 09:31:00,76.8,75.6,31.01,East,96,0.0,0.0,96,0.00,,---,0.00,VWS V14.01,2013-08-31 13:31:00,
2013-08-31 09:36:00,76.1,74.6,31.01,East,96,0.0,0.0,95,0.00,,---,0.00,VWS V14.01,2013-08-31 13:36:00,
2013-08-31 09:41:00,76.5,74.9,31.01,East,96,0.0,0.0,95,0.00,,---,0.00,VWS V14.01,2013-08-31 13:41:00,
2013-08-31 09:46:00,76.3,74.8,31.01,East,96,0.0,0.0,95,0.00,,---,0.00,VWS V14.01,2013-08-31 13:46:00,
2013-08-31 09:51:00,76.6,73.5,31.01,SSW,202,2.2,2.2,90,0.00,,---,0.00,VWS V14.01,2013-08-31 13:51:00,
2013-08-31 09:56:00,77.0,73.2,31.01,SE,124,0.0,0.0,88,0.00,,---,0.00,VWS V14.01,2013-08-31 13:56:00,
2013-08-31 10:01:00,77.4,72.8,31.01,SE,124,0.0,0.0,86,0.00,,---,0.00,VWS V14.01,2013-08-31 14:01:00,
2013-08-31 10:06:00,77.7,72.5,31.01,SE,124,0.0,0.0,84,0.00,,---,0.00,VWS V14.01,2013-08-31 14:06:00,
2013-08-31 10:11:00,78.3,72.7,31.01,SE,136,2.2,3.1,83,0.00,,---,0.00,VWS V14.01,2013-08-31 14:11:00,
2013-08-31 10:16:00,78.1,72.5,31.01,SE,136,0.0,0.0,83,0.00,,---,0.00,VWS V14.01,2013-08-31 14:16:00,
2013-08-31 10:21:00,78.3,72.3,31.01,SE,136,0.0,0.0,82,0.00,,---,0.00,VWS V14.01,2013-08-31 14:21:00,
2013-08-31 10:26:00,78.8,72.1,31.01,SE,136,0.0,0.0,80,0.00,,---,0.00,VWS V14.01,2013-08-31 14:26:00,
2013-08-31 10:31:00,79.2,72.5,31.01,SE,136,0.0,2.7,80,0.00,,---,0.00,VWS V14.01,2013-08-31 14:31:00,
2013-08-31 10:36:00,79.7,72.6,31.01,SE,136,2.7,3.1,79,0.00,,---,0.00,VWS V14.01,2013-08-31 14:36:00,
2013-08-31 10:41:00,79.9,72.0,31.01,SE,136,2.2,2.2,77,0.00,,---,0.00,VWS V14.01,2013-08-31 14:41:00,
2013-08-31 10:46:00,80.1,72.2,31.01,SE,136,0.0,0.0,77,0.00,,---,0.00,VWS V14.01,2013-08-31 14:46:00,
2013-08-31 10:51:00,80.6,72.3,31.01,SE,136,0.0,0.0,76,0.00,,---,0.00,VWS V14.01,2013-08-31 14:51:00,
2013-08-31 10:56:00,80.6,72.7,31.01,SE,136,2.7,2.7,77,0.00,,---,0.00,VWS V14.01,2013-08-31 14:56:00,
2013-08-31 11:01:00,81.3,73.4,31.01,SE,136,0.0,0.0,77,0.00,,---,0.00,VWS V14.01,2013-08-31 15:01:00,
2013-08-31 11:06:00,81.7,72.2,31.01,SW,235,0.0,2.2,73,0.00,,---,0.00,VWS V14.01,2013-08-31 15:06:00,
2013-08-31 11:11:00,82.0,71.7,31.01,SW,235,3.6,4.0,71,0.00,,---,0.00,VWS V14.01,2013-08-31 15:11:00,
2013-08-31 11:16:00,81.3,70.2,31.01,SE,127,0.0,2.2,69,0.00,,---,0.00,VWS V14.01,2013-08-31 15:16:00,
2013-08-31 11:21:00,80.6,69.5,31.01,WSW,237,0.0,0.0,69,0.00,,---,0.00,VWS V14.01,2013-08-31 15:21:00,
2013-08-31 11:26:00,80.4,70.2,31.01,WSW,237,0.0,2.7,71,0.00,,---,0.00,VWS V14.01,2013-08-31 15:26:00,
2013-08-31 11:31:00,80.2,70.8,31.01,WSW,237,0.0,0.0,73,0.00,,---,0.00,VWS V14.01,2013-08-31 15:31:00,
2013-08-31 11:36:00,79.9,71.2,31.01,WSW,237,0.0,0.0,75,0.00,,---,0.00,VWS V14.01,2013-08-31 15:36:00,
2013-08-31 11:41:00,80.2,72.0,31.01,WSW,237,0.0,0.0,76,0.00,,---,0.00,VWS V14.01,2013-08-31 15:41:00,
2013-08-31 11:46:00,81.0,72.7,31.01,ESE,117,2.2,2.7,76,0.00,,---,0.00,VWS V14.01,2013-08-31 15:46:00,
2013-08-31 11:51:00,81.5,72.4,31.01,ESE,109,3.1,3.6,74,0.00,,---,0.00,VWS V14.01,2013-08-31 15:51:00,
2013-08-31 11:56:00,81.9,72.4,31.01,SE,127,2.7,3.1,73,0.00,,---,0.00,VWS V14.01,2013-08-31 15:56:00,
2013-08-31 12:01:00,82.4,72.9,31.01,SE,127,3.6,3.6,73,0.00,,---,0.00,VWS V14.01,2013-08-31 16:01:00,
2013-08-31 12:06:00,82.8,72.4,31.01,SE,127,3.1,3.1,71,0.00,,---,0.00,VWS V14.01,2013-08-31 16:06:00,
2013-08-31 12:11:00,82.9,72.6,31.01,SE,127,0.0,2.2,71,0.00,,---,0.00,VWS V14.01,2013-08-31 16:11:00,
2013-08-31 12:16:00,83.1,72.8,31.01,SE,127,2.2,2.2,71,0.00,,---,0.00,VWS V14.01,2013-08-31 16:16:00,
2013-08-31 12:21:00,83.8,73.0,31.01,ESE,116,3.6,3.6,70,0.00,,---,0.00,VWS V14.01,2013-08-31 16:21:00,
2013-08-31 12:26:00,83.8,72.6,31.01,SSE,163,0.0,3.6,69,0.00,,---,0.00,VWS V14.01,2013-08-31 16:26:00,
2013-08-31 12:31:00,84.2,73.4,31.01,SE,140,2.7,2.7,70,0.00,,---,0.00,VWS V14.01,2013-08-31 16:31:00,
2013-08-31 12:36:00,84.6,73.3,31.01,ESE,110,3.6,3.6,69,0.00,,---,0.00,VWS V14.01,2013-08-31 16:36:00,
2013-08-31 12:41:00,85.3,74.4,31.01,SE,143,3.6,3.6,70,0.00,,---,0.00,VWS V14.01,2013-08-31 16:41:00,
2013-08-31 12:46:00,85.1,72.9,31.01,ESE,116,2.2,2.7,67,0.00,,---,0.00,VWS V14.01,2013-08-31 16:46:00,
2013-08-31 12:51:00,84.7,72.6,31.01,ESE,116,0.0,0.0,67,0.00,,---,0.00,VWS V14.01,2013-08-31 16:51:00,
2013-08-31 12:56:00,84.7,72.6,31.01,ESE,116,2.2,2.2,67,0.00,,---,0.00,VWS V14.01,2013-08-31 16:56:00,
2013-08-31 13:01:00,84.4,72.2,31.01,ESE,117,0.0,0.0,67,0.00,,---,0.00,VWS V14.01,2013-08-31 17:01:00,
2013-08-31 13:06:00,85.1,72.9,31.01,SE,139,2.7,3.6,67,0.00,,---,0.00,VWS V14.01,2013-08-31 17:06:00,
2013-08-31 13:11:00,85.5,72.8,31.01,ESE,123,2.2,3.6,66,0.00,,---,0.00,VWS V14.01,2013-08-31 17:11:00,
2013-08-31 13:16:00,85.1,72.5,31.01,ESE,123,0.0,3.1,66,0.00,,---,0.00,VWS V14.01,2013-08-31 17:16:00,
2013-08-31 13:21:00,85.5,72.8,31.01,ESE,123,2.2,2.2,66,0.00,,---,0.00,VWS V14.01,2013-08-31 17:21:00,
2013-08-31 13:26:00,86.2,73.5,31.01,ESE,123,3.1,3.1,66,0.00,,---,0.00,VWS V14.01,2013-08-31 17:26:00,
2013-08-31 13:31:00,85.5,72.4,31.01,NE,45,3.6,3.6,65,0.00,,---,0.00,VWS V14.01,2013-08-31 17:31:00,
2013-08-31 13:36:00,84.6,72.4,31.01,NE,45,0.0,0.0,67,0.00,,---,0.00,VWS V14.01,2013-08-31 17:36:00,
2013-08-31 13:41:00,84.4,72.7,31.01,NE,51,0.0,0.0,68,0.00,,---,0.00,VWS V14.01,2013-08-31 17:41:00,
2013-08-31 13:46:00,85.3,73.5,31.01,NE,51,2.2,2.2,68,0.00,,---,0.00,VWS V14.01,2013-08-31 17:46:00,
2013-08-31 13:51:00,86.2,73.0,31.01,SW,230,2.2,2.2,65,0.00,,---,0.00,VWS V14.01,2013-08-31 17:51:00,
2013-08-31 13:56:00,85.6,71.6,31.01,SW,229,2.2,2.7,63,0.00,,---,0.00,VWS V14.01,2013-08-31 17:56:00,
2013-08-31 14:01:00,84.7,72.1,31.01,ESE,117,0.0,2.2,66,0.00,,---,0.00,VWS V14.01,2013-08-31 18:01:00,
2013-08-31 14:06:00,84.6,72.4,31.01,ESE,118,2.2,2.2,67,0.00,,---,0.00,VWS V14.01,2013-08-31 18:06:00,
2013-08-31 14:11:00,84.6,72.8,31.01,ESE,103,0.0,0.0,68,0.00,,---,0.00,VWS V14.01,2013-08-31 18:11:00,
2013-08-31 14:16:00,85.1,73.4,31.01,ESE,114,2.7,2.7,68,0.00,,---,0.00,VWS V14.01,2013-08-31 18:16:00,
2013-08-31 14:21:00,84.4,73.5,31.01,South,190,2.2,2.7,70,0.00,,---,0.00,VWS V14.01,2013-08-31 18:21:00,
2013-08-31 14:26:00,83.3,73.3,31.01,South,191,0.0,0.0,72,0.00,,---,0.00,VWS V14.01,2013-08-31 18:26:00,
2013-08-31 14:31:00,82.6,73.1,31.01,South,191,0.0,0.0,73,0.00,,---,0.00,VWS V14.01,2013-08-31 18:31:00,
2013-08-31 14:36:00,80.6,69.9,31.01,SE,139,5.4,5.4,70,0.00,,---,0.00,VWS V14.01,2013-08-31 18:36:00,
2013-08-31 14:41:00,77.0,67.3,31.01,SSE,158,3.6,3.6,72,0.00,,---,0.00,VWS V14.01,2013-08-31 18:41:00,
2013-08-31 14:46:00,73.8,67.9,31.01,SSE,168,5.4,5.4,82,0.08,,---,0.08,VWS V14.01,2013-08-31 18:46:00,
2013-08-31 14:51:00,71.8,67.7,31.01,ESE,117,3.1,4.0,87,0.12,,---,0.00,VWS V14.01,2013-08-31 18:51:00,
2013-08-31 14:56:00,71.6,68.8,31.01,ESE,117,2.2,2.2,91,0.12,,---,0.12,VWS V14.01,2013-08-31 18:56:00,
2013-08-31 15:01:00,71.4,69.9,31.01,ESE,117,0.0,0.0,95,0.12,,---,0.12,VWS V14.01,2013-08-31 19:01:00,
2013-08-31 15:06:00,71.1,69.9,31.01,ESE,117,0.0,0.0,96,0.12,,---,0.12,VWS V14.01,2013-08-31 19:06:00,
2013-08-31 15:11:00,70.7,69.8,31.01,ESE,117,0.0,0.0,97,0.16,,---,0.16,VWS V14.01,2013-08-31 19:11:00,
2013-08-31 15:16:00,70.5,69.9,31.01,ESE,117,0.0,0.0,98,0.16,,---,0.16,VWS V14.01,2013-08-31 19:16:00,
2013-08-31 15:21:00,70.5,69.9,31.01,ESE,117,0.0,0.0,98,0.16,,---,0.16,VWS V14.01,2013-08-31 19:21:00,
2013-08-31 15:26:00,70.5,69.9,31.01,ESE,117,0.0,0.0,98,0.16,,---,0.16,VWS V14.01,2013-08-31 19:26:00,
2013-08-31 15:31:00,70.7,70.1,31.01,ESE,117,0.0,0.0,98,0.16,,---,0.16,VWS V14.01,2013-08-31 19:31:00,
2013-08-31 15:36:00,70.7,70.1,31.01,ESE,117,0.0,0.0,98,0.16,,---,0.16,VWS V14.01,2013-08-31 19:36:00,
2013-08-31 15:41:00,70.7,70.1,31.01,ESE,117,0.0,0.0,98,0.16,,---,0.16,VWS V14.01,2013-08-31 19:41:00,
2013-08-31 15:46:00,70.7,70.1,31.01,ESE,117,0.0,0.0,98,0.08,,---,0.16,VWS V14.01,2013-08-31 19:46:00,
2013-08-31 15:51:00,70.9,70.3,31.01,ESE,117,0.0,0.0,98,0.04,,---,0.16,VWS V14.01,2013-08-31 19:51:00,
2013-08-31 15:56:00,71.1,70.5,31.01,ESE,117,0.0,0.0,98,0.04,,---,0.16,VWS V14.01,2013-08-31 19:56:00,
2013-08-31 16:01:00,71.4,70.8,31.01,ESE,117,0.0,0.0,98,0.04,,---,0.16,VWS V14.01,2013-08-31 20:01:00,
2013-08-31 16:06:00,72.0,71.4,31.01,ESE,117,0.0,0.0,98,0.04,,---,0.16,VWS V14.01,2013-08-31 20:06:00,
2013-08-31 16:11:00,72.5,71.9,31.01,ESE,117,0.0,0.0,98,0.00,,---,0.16,VWS V14.01,2013-08-31 20:11:00,
2013-08-31 16:16:00,73.0,72.4,31.01,ESE,117,0.0,0.0,98,0.00,,---,0.16,VWS V14.01,2013-08-31 20:16:00,
2013-08-31 16:21:00,73.2,72.6,31.01,ESE,117,0.0,0.0,98,0.00,,---,0.00,VWS V14.01,2013-08-31 20:21:00,
2013-08-31 16:26:00,73.9,73.3,31.01,ESE,117,0.0,0.0,98,0.00,,---,0.16,VWS V14.01,2013-08-31 20:26:00,
2013-08-31 16:31:00,73.9,73.3,31.01,ESE,117,0.0,0.0,98,0.00,,---,0.16,VWS V14.01,2013-08-31 20:31:00,
2013-08-31 16:36:00,74.1,73.5,31.01,ESE,117,0.0,0.0,98,0.00,,---,0.16,VWS V14.01,2013-08-31 20:36:00,
2013-08-31 16:41:00,74.8,74.2,31.01,ESE,117,0.0,0.0,98,0.00,,---,0.16,VWS V14.01,2013-08-31 20:41:00,
2013-08-31 16:46:00,75.6,75.0,31.01,ESE,117,0.0,0.0,98,0.00,,---,0.16,VWS V14.01,2013-08-31 20:46:00,
2013-08-31 16:51:00,75.6,75.0,31.01,ESE,117,0.0,0.0,98,0.00,,---,0.16,VWS V14.01,2013-08-31 20:51:00,
2013-08-31 16:56:00,75.4,74.8,31.01,ESE,117,0.0,0.0,98,0.00,,---,0.16,VWS V14.01,2013-08-31 20:56:00,
2013-08-31 17:01:00,75.9,75.3,31.01,ESE,117,0.0,0.0,98,0.00,,---,0.16,VWS V14.01,2013-08-31 21:01:00,
2013-08-31 17:06:00,75.9,75.3,31.01,ESE,117,0.0,0.0,98,0.00,,---,0.16,VWS V14.01,2013-08-31 21:06:00,
2013-08-31 17:11:00,75.9,75.3,31.01,ESE,117,0.0,0.0,98,0.00,,---,0.16,VWS V14.01,2013-08-31 21:11:00,
2013-08-31 17:16:00,76.1,75.5,31.01,ESE,117,0.0,0.0,98,0.00,,---,0.16,VWS V14.01,2013-08-31 21:16:00,
2013-08-31 17:21:00,76.1,75.5,31.01,ESE,117,0.0,0.0,98,0.00,,---,0.16,VWS V14.01,2013-08-31 21:21:00,
2013-08-31 17:26:00,75.9,75.3,31.01,ESE,117,0.0,0.0,98,0.00,,---,0.16,VWS V14.01,2013-08-31 21:26:00,
2013-08-31 17:31:00,75.7,75.1,31.01,ESE,117,0.0,0.0,98,0.00,,---,0.16,VWS V14.01,2013-08-31 21:31:00,
2013-08-31 17:36:00,75.6,75.0,31.01,ESE,117,0.0,0.0,98,0.00,,---,0.16,VWS V14.01,2013-08-31 21:36:00,
2013-08-31 17:41:00,75.4,74.8,31.01,ESE,117,0.0,0.0,98,0.00,,---,0.00,VWS V14.01,2013-08-31 21:41:00,
2013-08-31 17:46:00,75.0,74.4,31.01,ESE,117,0.0,0.0,98,0.00,,---,0.16,VWS V14.01,2013-08-31 21:46:00,
2013-08-31 17:51:00,74.8,74.2,31.01,ESE,117,0.0,0.0,98,0.00,,---,0.16,VWS V14.01,2013-08-31 21:51:00,
2013-08-31 17:56:00,74.7,74.1,31.01,ESE,117,0.0,0.0,98,0.00,,---,0.16,VWS V14.01,2013-08-31 21:56:00,
2013-08-31 18:01:00,74.5,73.9,31.01,ESE,117,0.0,2.2,98,0.00,,---,0.16,VWS V14.01,2013-08-31 22:01:00,
2013-08-31 18:06:00,74.5,73.9,31.01,South,183,0.0,0.0,98,0.00,,---,0.16,VWS V14.01,2013-08-31 22:06:00,
2013-08-31 18:11:00,74.5,73.9,31.01,SSE,166,2.2,3.1,98,0.00,,---,0.00,VWS V14.01,2013-08-31 22:11:00,
2013-08-31 18:16:00,74.1,73.5,31.01,SSE,166,0.0,0.0,98,0.00,,---,0.16,VWS V14.01,2013-08-31 22:16:00,
2013-08-31 18:21:00,73.9,73.3,31.01,SSE,166,0.0,0.0,98,0.00,,---,0.16,VWS V14.01,2013-08-31 22:21:00,
2013-08-31 18:26:00,73.8,73.2,31.01,SSE,166,0.0,0.0,98,0.00,,---,0.16,VWS V14.01,2013-08-31 22:26:00,
2013-08-31 18:31:00,73.4,72.8,31.01,SSE,166,0.0,0.0,98,0.00,,---,0.16,VWS V14.01,2013-08-31 22:31:00,
2013-08-31 18:36:00,73.2,72.6,31.01,SSE,166,0.0,0.0,98,0.00,,---,0.16,VWS V14.01,2013-08-31 22:36:00,
2013-08-31 18:41:00,73.2,72.6,31.01,SSE,166,0.0,0.0,98,0.00,,---,0.16,VWS V14.01,2013-08-31 22:41:00,
2013-08-31 18:46:00,72.9,72.3,31.01,SSE,166,0.0,0.0,98,0.00,,---,0.16,VWS V14.01,2013-08-31 22:46:00,
2013-08-31 18:51:00,72.7,72.1,31.01,SSE,166,0.0,0.0,98,0.00,,---,0.16,VWS V14.01,2013-08-31 22:51:00,
2013-08-31 18:56:00,72.7,72.1,31.01,SSE,166,0.0,0.0,98,0.00,,---,0.16,VWS V14.01,2013-08-31 22:56:00,
2013-08-31 19:01:00,72.7,72.1,31.01,SSE,166,0.0,0.0,98,0.00,,---,0.16,VWS V14.01,2013-08-31 23:01:00,
2013-08-31 19:06:00,72.7,72.1,31.01,SSE,166,0.0,0.0,98,0.00,,---,0.16,VWS V14.01,2013-08-31 23:06:00,
2013-08-31 19:11:00,72.7,72.1,31.01,SSE,166,0.0,0.0,98,0.00,,---,0.16,VWS V14.01,2013-08-31 23:11:00,
2013-08-31 19:16:00,72.5,71.9,31.01,SSE,166,0.0,0.0,98,0.00,,---,0.00,VWS V14.01,2013-08-31 23:16:00,
2013-08-31 19:21:00,72.5,71.9,31.01,SSE,166,0.0,0.0,98,0.00,,---,0.16,VWS V14.01,2013-08-31 23:21:00,
2013-08-31 19:26:00,72.3,71.7,31.01,SSE,166,0.0,0.0,98,0.00,,---,0.16,VWS V14.01,2013-08-31 23:26:00,
2013-08-31 19:31:00,72.1,71.6,31.01,SSE,166,0.0,0.0,98,0.00,,---,0.16,VWS V14.01,2013-08-31 23:31:00,
2013-08-31 19:36:00,71.8,71.2,31.01,SSE,166,0.0,0.0,98,0.00,,---,0.00,VWS V14.01,2013-08-31 23:36:00,
2013-08-31 19:41:00,71.6,71.0,31.01,SSE,166,0.0,0.0,98,0.00,,---,0.16,VWS V14.01,2013-08-31 23:41:00,
2013-08-31 19:46:00,71.4,70.8,31.01,SSE,166,0.0,0.0,98,0.00,,---,0.16,VWS V14.01,2013-08-31 23:46:00,
2013-08-31 19:51:00,71.2,70.7,31.01,SSE,166,0.0,0.0,98,0.00,,---,0.16,VWS V14.01,2013-08-31 23:51:00,
2013-08-31 19:56:00,71.1,70.5,31.01,SSE,166,0.0,0.0,98,0.00,,---,0.16,VWS V14.01,2013-08-31 23:56:00,
2013-08-31 20:01:00,70.9,70.3,31.01,SSE,166,0.0,0.0,98,0.00,,---,0.16,VWS V14.01,2013-09-01 00:01:00,
2013-08-31 20:06:00,70.9,70.3,31.01,SSE,166,0.0,0.0,98,0.00,,---,0.16,VWS V14.01,2013-09-01 00:06:00,
2013-08-31 20:11:00,70.9,70.3,31.01,SSE,166,0.0,0.0,98,0.00,,---,0.16,VWS V14.01,2013-09-01 00:11:00,
2013-08-31 20:16:00,70.9,70.3,31.01,SSE,166,0.0,0.0,98,0.00,,---,0.16,VWS V14.01,2013-09-01 00:16:00,
2013-08-31 20:21:00,70.7,70.1,31.01,SSE,166,0.0,0.0,98,0.00,,---,0.16,VWS V14.01,2013-09-01 00:21:00,
2013-08-31 20:26:00,70.7,70.1,31.01,SSE,166,0.0,0.0,98,0.00,,---,0.16,VWS V14.01,2013-09-01 00:26:00,
2013-08-31 20:31:00,70.5,69.9,31.01,SSE,166,0.0,0.0,98,0.00,,---,0.16,VWS V14.01,2013-09-01 00:31:00,
2013-08-31 20:36:00,70.5,69.9,31.01,SSE,166,0.0,0.0,98,0.00,,---,0.16,VWS V14.01,2013-09-01 00:36:00,
2013-08-31 20:41:00,70.3,69.8,31.01,SSE,166,0.0,0.0,98,0.00,,---,0.16,VWS V14.01,2013-09-01 00:41:00,
2013-08-31 20:46:00,70.3,69.8,31.01,SSE,166,0.0,0.0,98,0.00,,---,0.16,VWS V14.01,2013-09-01 00:46:00,
2013-08-31 20:51:00,70.3,69.8,31.01,SSE,166,0.0,0.0,98,0.00,,---,0.16,VWS V14.01,2013-09-01 00:51:00,
2013-08-31 20:56:00,70.3,69.8,31.01,SSE,166,0.0,0.0,98,0.00,,---,0.16,VWS V14.01,2013-09-01 00:56:00,
2013-08-31 21:01:00,70.3,69.8,31.01,SSE,166,0.0,0.0,98,0.00,,---,0.16,VWS V14.01,2013-09-01 01:01:00,
2013-08-31 21:06:00,70.2,69.6,31.01,SSE,166,0.0,0.0,98,0.00,,---,0.16,VWS V14.01,2013-09-01 01:06:00,
2013-08-31 21:11:00,70.0,69.4,31.01,SSE,166,0.0,0.0,98,0.00,,---,0.16,VWS V14.01,2013-09-01 01:11:00,
2013-08-31 21:16:00,69.6,69.0,31.01,SSE,166,0.0,0.0,98,0.00,,---,0.16,VWS V14.01,2013-09-01 01:16:00,
2013-08-31 21:21:00,69.4,68.8,31.01,SSE,166,0.0,0.0,98,0.00,,---,0.16,VWS V14.01,2013-09-01 01:21:00,
2013-08-31 21:26:00,69.4,68.8,31.01,SSE,166,0.0,0.0,98,0.00,,---,0.16,VWS V14.01,2013-09-01 01:26:00,
2013-08-31 21:31:00,69.3,68.7,31.01,SSE,166,0.0,0.0,98,0.00,,---,0.16,VWS V14.01,2013-09-01 01:31:00,
2013-08-31 21:36:00,69.1,68.5,31.01,SSE,166,0.0,0.0,98,0.00,,---,0.16,VWS V14.01,2013-09-01 01:36:00,
2013-08-31 21:41:00,69.1,68.5,31.01,SSE,166,0.0,0.0,98,0.00,,---,0.16,VWS V14.01,2013-09-01 01:41:00,
2013-08-31 21:46:00,68.9,68.3,31.01,SSE,166,0.0,0.0,98,0.00,,---,0.16,VWS V14.01,2013-09-01 01:46:00,
2013-08-31 21:51:00,68.7,68.1,31.01,SSE,166,0.0,0.0,98,0.00,,---,0.00,VWS V14.01,2013-09-01 01:51:00,
2013-08-31 21:56:00,68.7,68.1,31.01,SSE,166,0.0,0.0,98,0.00,,---,0.16,VWS V14.01,2013-09-01 01:56:00,
2013-08-31 22:01:00,68.5,68.0,31.01,SSE,166,0.0,0.0,98,0.00,,---,0.16,VWS V14.01,2013-09-01 02:01:00,
2013-08-31 22:06:00,68.4,67.8,31.01,SSE,166,0.0,0.0,98,0.00,,---,0.16,VWS V14.01,2013-09-01 02:06:00,
2013-08-31 22:11:00,68.4,67.8,31.01,SSE,166,0.0,0.0,98,0.00,,---,0.16,VWS V14.01,2013-09-01 02:11:00,
2013-08-31 22:16:00,68.2,67.6,31.01,SSE,166,0.0,0.0,98,0.00,,---,0.16,VWS V14.01,2013-09-01 02:16:00,
2013-08-31 22:21:00,68.2,67.6,31.01,SSE,166,0.0,0.0,98,0.00,,---,0.16,VWS V14.01,2013-09-01 02:21:00,
2013-08-31 22:26:00,68.2,67.6,31.01,SSE,166,0.0,0.0,98,0.00,,---,0.16,VWS V14.01,2013-09-01 02:26:00,
2013-08-31 22:31:00,68.0,67.4,31.01,SSE,166,0.0,0.0,98,0.00,,---,0.16,VWS V14.01,2013-09-01 02:31:00,
2013-08-31 22:36:00,68.0,67.4,31.01,SSE,166,0.0,0.0,98,0.00,,---,0.16,VWS V14.01,2013-09-01 02:36:00,
2013-08-31 22:41:00,68.0,67.4,31.01,SSE,166,0.0,0.0,98,0.00,,---,0.16,VWS V14.01,2013-09-01 02:41:00,
2013-08-31 22:46:00,67.8,67.2,31.01,SSE,166,0.0,0.0,98,0.00,,---,0.16,VWS V14.01,2013-09-01 02:46:00,
2013-08-31 22:51:00,67.8,67.2,31.01,SSE,166,0.0,0.0,98,0.00,,---,0.16,VWS V14.01,2013-09-01 02:51:00,
2013-08-31 22:56:00,67.6,67.1,31.01,SSE,166,0.0,0.0,98,0.00,,---,0.16,VWS V14.01,2013-09-01 02:56:00,
2013-08-31 23:01:00,67.6,67.1,31.01,SSE,166,0.0,0.0,98,0.00,,---,0.16,VWS V14.01,2013-09-01 03:01:00,
2013-08-31 23:06:00,67.5,66.9,31.01,SSE,166,0.0,0.0,98,0.00,,---,0.16,VWS V14.01,2013-09-01 03:06:00,
2013-08-31 23:11:00,67.6,67.1,31.01,SSE,166,0.0,0.0,98,0.00,,---,0.16,VWS V14.01,2013-09-01 03:11:00,
2013-08-31 23:16:00,67.5,66.9,31.01,SSE,166,0.0,0.0,98,0.00,,---,0.16,VWS V14.01,2013-09-01 03:16:00,
2013-08-31 23:21:00,67.5,66.9,31.01,SSE,166,0.0,0.0,98,0.00,,---,0.16,VWS V14.01,2013-09-01 03:21:00,
2013-08-31 23:26:00,67.3,66.7,31.01,SSE,166,0.0,0.0,98,0.00,,---,0.16,VWS V14.01,2013-09-01 03:26:00,
2013-08-31 23:31:00,67.3,66.7,31.01,SSE,166,0.0,0.0,98,0.00,,---,0.16,VWS V14.01,2013-09-01 03:31:00,
2013-08-31 23:36:00,67.3,66.7,31.01,SSE,166,0.0,0.0,98,0.00,,---,0.16,VWS V14.01,2013-09-01 03:36:00,
2013-08-31 23:41:00,67.1,66.5,31.01,SSE,166,0.0,0.0,98,0.00,,---,0.16,VWS V14.01,2013-09-01 03:41:00,
2013-08-31 23:46:00,67.1,66.5,31.01,SSE,166,0.0,0.0,98,0.00,,---,0.16,VWS V14.01,2013-09-01 03:46:00,
2013-08-31 23:51:00,66.9,66.3,31.01,SSE,166,0.0,0.0,98,0.00,,---,0.16,VWS V14.01,2013-09-01 03:51:00,
2013-08-31 23:56:00,67.1,66.5,31.01,SSE,166,0.0,0.0,98,0.00,,---,0.16,VWS V14.01,2013-09-01 03:56:00,